Starlink 30142

operational
NORAD ID: 56836 Int'l Des: 2023-079 Owner: SPXS Country: US Constellation: starlink
LEOCIRCULAR

关于 Starlink 30142

正在加载描述...

实时位置

正在加载3D地球...

即将过境

高度历史

Altitude vs Time

uPlot chart will show altitude changes over time

两行轨道根数

1 56836U 23079P 26095.61162570 .00005954 00000-0 22588-3 0 9990
2 56836 43.0001 311.7640 0001265 257.9307 102.1403 15.27557464157041
Epoch: Apr 5, 2026 • Age: 5 hours

当前状态

高度 486.5 km
速度 7.63 km/s
星下点 40.64°N, 67.67°W
发射日期 Jun 4, 2023
运行时间 2.8 years
类型 internet

技术详情

分类 Payload
质量 730.00 kg
干质量 700.00 kg
总质量 730.00 kg
长度 0.30 m
直径 4.10 m
跨度 29.00 m
形状 Box + pan
制造商 SPXS
平台类型 Starlink V2M
阶段状态 In Orbit
所有者/国家 SPXS/US

大型星座

Loading constellations...